Weather History for Windom, MN

Change the Weather History Date:

Friday, May 11, 2012

  Actual Average Record
Temperature  
Mean Temperature 56 °F -  
Max Temperature 64 °F 68 °F 93 °F (1987)
Min Temperature 48 °F 45 °F 30 °F (1957)
Degree Days  
Heating Degree Days 9    
Growing Degree Days 6 (Base 50)    
Moisture  
Dew Point 45 °F    
Average Humidity 67    
Maximum Humidity 87    
Minimum Humidity 36    
Precipitation  
Precipitation 0.00 in - - ()
Sea Level Pressure  
Sea Level Pressure 30.02 in    
Wind  
Wind Speed 19 mph (WNW)    
Max Wind Speed 31 mph    
Max Gust Speed 41 mph    
Visibility 10 miles    
Events Rain    
Averages and records for this station are not official NWS values.
T = Trace of Precipitation, MM = Missing Value Source: NWS Daily Summary

Daily Weather History Graph

Daily Weather History Graph

Search for Another Location

Airport:

Trip Planner

Search our weather history database for the weather conditions in past years. The results will help you decide how hot, cold, wet, or windy it might be!

Date:

Astronomy

May. 11, 2012 Rise Set
Actual Time 5:58 AM CDT 8:35 PM CDT
Civil Twilight 5:25 AM CDT 9:08 PM CDT
Nautical Twilight 4:44 AM CDT 9:50 PM CDT
Astronomical Twilight 3:57 AM CDT 10:37 PM CDT
Moon 1:14 AM CDT (5/11) 11:34 AM CDT (5/11)
Length of Visible Light 15h 43m
Length of Day
14h 37m
Waning Gibbous, 63% of the Moon is Illuminated
May 11
Waning Gibbous
May 12
Last Quarter
May 20
New
May 28
First Quarter
Jun 4
Full

Hourly Weather History & Observations

Time (CDT) Temp. Dew Point Humidity Pressure Visibility Wind Dir Wind Speed Gust Speed Precip Events Conditions
12:13 AM 62.6 °F 50.0 °F 63% 29.76 in 10.0 mi SSE 18.4 mph 24.2 mph N/A   Clear
12:32 AM 64.4 °F 50.0 °F 59% 29.76 in 10.0 mi SSE 19.6 mph 25.3 mph N/A   Clear
12:53 AM 64.4 °F 51.8 °F 64% 29.76 in 10.0 mi SSE 18.4 mph 26.5 mph N/A   Clear
1:12 AM 62.6 °F 51.8 °F 68% 29.76 in 10.0 mi SSE 18.4 mph 29.9 mph N/A   Clear
1:32 AM 62.6 °F 51.8 °F 68% 29.76 in 10.0 mi SSE 19.6 mph - N/A   Clear
1:53 AM 62.6 °F 51.8 °F 68% 29.75 in 10.0 mi SSE 15.0 mph 23.0 mph N/A   Clear
2:13 AM 62.6 °F 51.8 °F 68% 29.75 in 10.0 mi South 12.7 mph 24.2 mph N/A   Clear
2:32 AM 62.6 °F 51.8 °F 68% 29.75 in 10.0 mi South 11.5 mph 20.7 mph N/A   Clear
2:53 AM 62.6 °F 51.8 °F 68% 29.74 in 10.0 mi South 13.8 mph 21.9 mph N/A   Clear
3:12 AM 60.8 °F 51.8 °F 72% 29.74 in 10.0 mi South 13.8 mph 24.2 mph N/A   Clear
3:33 AM 60.8 °F 51.8 °F 72% 29.74 in 10.0 mi South 13.8 mph 21.9 mph N/A   Clear
3:52 AM 60.8 °F 51.8 °F 72% 29.74 in 10.0 mi South 15.0 mph 19.6 mph N/A   Clear
4:12 AM 60.8 °F 51.8 °F 72% 29.74 in 10.0 mi South 17.3 mph 20.7 mph N/A   Clear
4:33 AM 60.8 °F 51.8 °F 72% 29.75 in 10.0 mi South 16.1 mph 21.9 mph N/A   Clear
4:52 AM 60.8 °F 51.8 °F 72% 29.77 in 10.0 mi SSW 11.5 mph - N/A   Clear
5:12 AM 60.8 °F 51.8 °F 72% 29.79 in 10.0 mi WSW 10.4 mph - N/A   Clear
5:32 AM 55.4 °F 46.4 °F 72% 29.83 in 10.0 mi NW 25.3 mph 33.4 mph N/A   Clear
5:52 AM 53.6 °F 44.6 °F 72% 29.85 in 10.0 mi NW 25.3 mph 31.1 mph N/A   Clear
6:13 AM 53.6 °F 44.6 °F 72% 29.86 in 10.0 mi NW 25.3 mph 34.5 mph N/A   Clear
6:32 AM 53.6 °F 44.6 °F 72% 29.87 in 10.0 mi NW 27.6 mph 32.2 mph N/A   Clear
6:52 AM 53.6 °F 44.6 °F 72% 29.89 in 10.0 mi NW 25.3 mph 33.4 mph N/A   Clear
7:13 AM 53.6 °F 44.6 °F 72% 29.90 in 10.0 mi NW 23.0 mph 32.2 mph N/A   Clear
7:32 AM 53.6 °F 44.6 °F 72% 29.91 in 10.0 mi NW 24.2 mph 29.9 mph N/A   Clear
7:52 AM 53.6 °F 44.6 °F 72% 29.92 in 10.0 mi NW 31.1 mph 41.4 mph N/A   Clear
8:12 AM 55.4 °F 44.6 °F 67% 29.93 in 10.0 mi NW 29.9 mph 39.1 mph N/A   Clear
8:32 AM 55.4 °F 44.6 °F 67% 29.94 in 10.0 mi NW 27.6 mph 39.1 mph N/A   Clear
8:53 AM 55.4 °F 46.4 °F 72% 29.94 in 10.0 mi NNW 29.9 mph 34.5 mph N/A   Clear
9:12 AM 57.2 °F 44.6 °F 63% 29.95 in 10.0 mi NNW 28.8 mph 33.4 mph N/A   Clear
9:32 AM 57.2 °F 44.6 °F 63% 29.97 in 10.0 mi NNW 25.3 mph 32.2 mph N/A   Clear
9:53 AM 59.0 °F 44.6 °F 59% 29.98 in 10.0 mi NW 25.3 mph 32.2 mph N/A   Clear
10:12 AM 60.8 °F 46.4 °F 59% 30.00 in 10.0 mi NW 23.0 mph 28.8 mph N/A   Clear
10:32 AM 59.0 °F 44.6 °F 59% 30.00 in 10.0 mi NW 23.0 mph 28.8 mph N/A   Clear
10:53 AM 59.0 °F 44.6 °F 59% 30.02 in 10.0 mi NW 24.2 mph 29.9 mph N/A   Clear
11:12 AM 59.0 °F 44.6 °F 59% 30.03 in 10.0 mi NW 25.3 mph 35.7 mph N/A   Clear
11:32 AM 59.0 °F 44.6 °F 59% 30.05 in 10.0 mi NW 25.3 mph 32.2 mph N/A   Clear
11:53 AM 60.8 °F 42.8 °F 52% 30.06 in 10.0 mi NW 25.3 mph 32.2 mph N/A   Clear
12:13 PM 60.8 °F 42.8 °F 52% 30.06 in 10.0 mi NW 24.2 mph 33.4 mph N/A   Clear
12:32 PM 60.8 °F 42.8 °F 52% 30.07 in 10.0 mi NW 26.5 mph 35.7 mph N/A   Clear
12:53 PM 62.6 °F 41.0 °F 45% 30.07 in 10.0 mi NW 21.9 mph 31.1 mph N/A   Clear
1:12 PM 62.6 °F 39.2 °F 42% 30.08 in 10.0 mi NW 25.3 mph 33.4 mph N/A   Clear
1:32 PM 62.6 °F 39.2 °F 42% 30.08 in 10.0 mi NW 27.6 mph 33.4 mph N/A   Clear
1:52 PM 60.8 °F 37.4 °F 42% 30.09 in 10.0 mi NW 28.8 mph 33.4 mph N/A   Scattered Clouds
2:12 PM 60.8 °F 37.4 °F 42% 30.10 in 10.0 mi NW 24.2 mph 32.2 mph N/A   Scattered Clouds
2:33 PM 60.8 °F 33.8 °F 36% 30.11 in 10.0 mi NW 25.3 mph 32.2 mph N/A   Scattered Clouds
2:52 PM 60.8 °F 35.6 °F 39% 30.12 in 10.0 mi NW 25.3 mph 29.9 mph N/A   Mostly Cloudy
3:12 PM 59.0 °F 35.6 °F 42% 30.13 in 10.0 mi NW 26.5 mph 36.8 mph N/A   Mostly Cloudy
3:33 PM 57.2 °F 37.4 °F 48% 30.14 in 10.0 mi NW 24.2 mph 34.5 mph N/A   Mostly Cloudy
3:52 PM 55.4 °F 37.4 °F 51% 30.15 in 10.0 mi NW 24.2 mph 31.1 mph N/A Rain Light Rain
4:13 PM 55.4 °F 37.4 °F 51% 30.16 in 10.0 mi NW 24.2 mph 32.2 mph N/A   Overcast
4:32 PM 57.2 °F 37.4 °F 48% 30.16 in 10.0 mi NW 26.5 mph 32.2 mph N/A   Mostly Cloudy
4:52 PM 55.4 °F 37.4 °F 51% 30.16 in 10.0 mi NNW 26.5 mph 34.5 mph N/A   Mostly Cloudy
5:13 PM 53.6 °F 37.4 °F 54% 30.17 in 10.0 mi NNW 28.8 mph 36.8 mph N/A   Overcast
5:32 PM 51.8 °F 39.2 °F 62% 30.18 in 10.0 mi NNW 23.0 mph 32.2 mph N/A   Overcast
5:52 PM 50.0 °F 39.2 °F 66% 30.18 in 10.0 mi NNW 20.7 mph 27.6 mph N/A   Overcast
6:12 PM 48.2 °F 42.8 °F 82% 30.19 in 10.0 mi NNW 17.3 mph - N/A Rain Light Rain
6:32 PM 48.2 °F 42.8 °F 82% 30.19 in 10.0 mi NNW 12.7 mph - N/A Rain Light Rain
6:52 PM 48.2 °F 44.6 °F 87% 30.20 in 10.0 mi NW 6.9 mph - N/A Rain Light Rain
7:13 PM 48.2 °F 44.6 °F 87% 30.21 in 10.0 mi NW 10.4 mph - N/A Rain Rain
7:32 PM 48.2 °F 44.6 °F 87% 30.21 in 10.0 mi NNW 6.9 mph - N/A Rain Light Rain
7:52 PM 48.2 °F 44.6 °F 87% 30.21 in 10.0 mi NNW 6.9 mph - N/A   Overcast
8:12 PM 48.2 °F 44.6 °F 87% 30.21 in 10.0 mi NNW 5.8 mph - N/A   Overcast
8:32 PM 48.2 °F 44.6 °F 87% 30.22 in 10.0 mi WNW 5.8 mph - N/A Rain Rain
8:52 PM 48.2 °F 44.6 °F 87% 30.22 in 10.0 mi Calm Calm - N/A Rain Light Rain
9:13 PM 48.2 °F 44.6 °F 87% 30.23 in 10.0 mi Calm Calm - N/A   Overcast
9:32 PM 48.2 °F 44.6 °F 87% 30.23 in 10.0 mi Calm Calm - N/A Rain Light Rain
9:52 PM 48.2 °F 44.6 °F 87% 30.24 in 10.0 mi Calm Calm - N/A   Overcast
10:13 PM 48.2 °F 44.6 °F 87% 30.25 in 10.0 mi SSW 3.5 mph - N/A   Overcast
10:32 PM 48.2 °F 44.6 °F 87% 30.26 in 10.0 mi South 3.5 mph - N/A   Overcast
10:52 PM 48.2 °F 44.6 °F 87% 30.26 in 10.0 mi Calm Calm - N/A   Overcast
11:12 PM 48.2 °F 44.6 °F 87% 30.26 in 10.0 mi SSW 3.5 mph - N/A   Mostly Cloudy
11:33 PM 48.2 °F 44.6 °F 87% 30.27 in 10.0 mi SSW 5.8 mph - N/A   Overcast
11:52 PM 48.2 °F 44.6 °F 87% 30.27 in 10.0 mi SSW 3.5 mph - N/A   Scattered Clouds